DMSP 5D-2 F13 DEB

Satellite information

Favourite Embed

Satellite Type and Status

DEBRISIN ORBIT

Key statistics

Satellite DMSP 5D-2 F13 DEB at a glance.

Uptime

11223

Days in orbit

Revolutions

≈ 14.0

Per day

Orbit

SSO

Sun Synchronous Orbit

Inclination

98.8

Latest

Satellite identification and parameters

Extended collection of information and parameters for DMSP 5D-2 F13 DEB.

Object identification

Identified? True

Debris? True

Object name: DMSP 5D-2 F13 DEB

International designator: 1995-015GD

Object number (NORAD): 42263

Object ID (CCSDS): 42263

Country: UNITED STATES OF AMERICA (US)

Current information (Y/N): Y

RCS size: SMALL

Orbital parameters

Period: 102.914 minutes

Inclination: 98.7528 deg

SMA: 7274.596 km

Apoapsis: 977.705 km

Periapsis: 815.218 km

RAAN: 203.0334 deg

Eccentricy: 0.01116813

Argument of periapsis: 182.0537 deg

Mean anomaly: 178.0184 deg

Mean motion: 13.9923095 rev/day

Mean motion (dot): 0.00003198 rev/day2

B* drag term: 0.0021157727 1/REarth

Two-line elements (TLE)

Creation date: Dec. 13, 2025, 5:47 p.m.

Reference frame: TEME

Reference center: EARTH

Epoch: Dec. 13, 2025, 1:04 a.m. UTC

TLE line 0: 0 DMSP 5D-2 F13 DEB

TLE line 1: 1 42263U 95015GD 25347.04494099 .00003198 00000-0 21158-2 0 9997

TLE line 2: 2 42263 98.7528 203.0334 0111681 182.0537 178.0184 13.99230950542165

Live tracking on map

Real-time ground track for satellite DMSP 5D-2 F13 DEB.

In-orbit conjunctions

A list of the most updated potential collisions computed for object DMSP 5D-2 F13 DEB.

Target Orbit TCA Probability of collision Miss distance Type
DMSP 5D-2 F13 DEB SSO 2025-07-16 14:16:00 0.0001070511 406.0 (m) DEBRIS
METEOR 2-2 LEO 2025-04-11 22:06:51 0.0005777975 168.0 (m) PAYLOAD
COSMOS 2297 LEO 2024-10-09 05:57:18 0.0002071708 106.0 (m) PAYLOAD

Associated space launch

Military meteorological satellite

DMSP 5D-2 F13 DEB was lifted into orbit during the mission ‘Atlas E | DMSP-5D2 F13’, on board a Atlas E space rocket.

The launch took place on March 24, 1995, 2:05 p.m. from Space Launch Complex 3W.

For more information about the launch, click the button.

Launch to space Atlas E | DMSP-5D2 F13
Atlas E | DMSP-5D2 F13

Agency: N/A

Status: Launch Successful

Launch date: March 24, 1995, 2:05 p.m. UTC

Rocket: Atlas E

Launch pad: Space Launch Complex 3W

Location: Vandenberg SFB, CA, USA

...

Latest news about this satellite

There are no fresh news available about this satellite. Check back as we update our databases every day.


Newsletter sign-up

Weekly statistics, charts and insights to help you stay on top of the space industry.